Wind_Speed
35 35 34 35 34 34 34 34 34 34 34 33 33 33 32 32 31 31 31 30 30 30 29 28 29 28 28 28 28 28 27 27 26 26 25 25 24 24 23 23 22 21 21
36 36 36 37 37 37 37 36 36 36 36 36 35 34 34 34 33 33 33 32 31 32 31 31 30 30 30 30 30 30 29 29 28 28 27 26 26 25 25 24 24 23 23
38 38 38 39 39 39 39 39 38 38 38 38 38 37 36 35 35 35 35 34 33 33 33 33 33 33 33 33 33 32 32 31 30 29 29 28 27 27 26 26 25 25 24
41 41 41 41 41 41 41 41 40 40 40 40 40 40 39 39 38 38 37 37 36 36 36 35 35 35 35 35 34 34 34 33 32 31 30 29 29 28 28 27 27 26 26
42 42 43 43 43 43 43 43 42 42 43 43 42 42 42 42 41 40 40 39 39 39 38 38 38 37 37 37 36 36 35 35 34 34 33 32 31 31 30 29 28 28 27
44 44 44 44 45 44 45 45 45 45 45 44 44 45 44 44 44 43 43 42 42 41 41 41 40 40 39 39 38 38 37 37 37 36 35 34 34 34 32 31 31 30 30
47 47 47 47 47 47 47 47 47 47 47 47 46 46 46 46 46 45 45 45 44 44 43 43 43 42 42 41 40 40 39 39 39 38 38 37 36 36 35 34 33 33 32
48 49 49 49 49 50 50 50 50 50 49 49 49 49 48 48 48 48 47 47 47 46 46 45 45 44 44 44 43 42 42 41 41 40 40 39 38 38 38 37 36 35 34
50 50 50 50 51 52 52 53 54 53 53 52 52 52 51 51 51 51 50 50 49 49 48 47 46 46 46 46 45 45 44 43 43 42 42 41 41 41 40 38 38 37 36
53 53 53 53 54 54 55 55 56 56 56 56 55 55 55 54 53 52 52 52 51 50 50 49 48 48 48 48 47 47 46 45 45 45 45 44 44 43 43 42 40 39 38
55 56 56 56 56 57 58 58 58 59 59 59 58 57 57 56 56 55 54 54 53 53 52 51 51 51 50 49 49 49 48 48 48 48 48 47 46 45 45 45 44 42 41
57 58 58 59 59 60 60 60 60 61 60 60 60 60 59 58 58 58 57 56 56 55 55 54 53 53 53 52 51 51 51 51 50 50 51 50 49 47 47 47 46 45 44
59 59 60 61 61 61 61 61 61 61 61 61 61 61 61 60 60 60 59 59 58 57 57 57 56 56 55 55 54 54 53 53 52 52 52 52 51 50 50 50 49 48 47
59 60 60 61 60 60 61 61 61 61 61 61 61 61 61 62 61 61 61 61 60 59 59 58 58 58 57 57 56 55 54 54 54 54 53 54 53 53 52 52 51 50 50
60 60 60 60 60 60 60 61 60 60 61 60 60 60 61 61 61 62 62 62 62 61 60 60 60 60 59 59 58 57 56 56 56 56 55 56 56 55 55 54 54 53 52
60 59 59 59 59 59 59 59 59 59 59 60 59 59 60 60 60 60 61 61 62 62 61 61 61 60 60 60 60 59 59 58 58 58 58 58 57 57 57 57 56 55 55
58 58 57 57 58 58 58 58 58 58 58 58 59 59 59 60 60 60 60 60 61 61 61 60 60 61 62 61 61 61 61 61 61 60 60 60 59 59 58 58 58 57 56
56 55 55 55 56 56 56 56 57 58 58 58 58 58 59 59 60 60 60 60 60 61 60 59 60 60 61 62 62 62 62 62 62 61 61 61 61 61 61 60 60 60 59
55 55 55 54 54 55 55 55 56 56 56 56 57 58 59 59 59 59 59 59 60 61 61 61 61 61 61 61 62 62 63 63 63 63 62 62 62 62 61 61 61 61 61
54 54 54 54 53 53 54 54 54 55 55 55 56 56 57 57 57 58 58 59 60 61 62 62 62 62 62 62 63 63 64 64 64 64 64 63 63 63 63 63 62 63 63
52 52 52 53 53 53 53 53 53 54 55 55 55 55 56 56 57 58 58 59 59 60 61 62 62 62 62 63 63 63 63 63 63 64 64 64 64 64 64 63 63 63 63
49 49 50 50 51 52 52 53 53 53 54 55 55 56 56 56 57 58 59 59 60 61 61 62 63 63 63 63 64 64 64 63 63 63 64 64 65 64 64 64 63 63 63
47 48 49 49 50 51 51 52 53 53 53 53 54 55 55 56 57 57 58 59 59 60 60 61 62 62 62 63 63 63 63 63 62 62 63 63 64 64 65 64 64 64 64
45 46 47 48 49 49 50 51 52 52 52 52 53 53 54 55 56 57 58 58 58 58 59 61 61 61 61 62 62 63 63 63 62 63 63 62 62 62 63 63 64 64 64
43 44 45 46 47 47 48 49 50 50 50 51 51 52 53 54 55 56 57 57 57 58 59 59 60 60 60 61 62 62 62 62 62 61 62 61 61 61 61 61 62 63 63
40 41 42 43 44 45 46 47 48 49 49 50 50 51 52 53 54 55 56 56 57 57 58 58 59 60 60 60 61 62 63 63 62 61 61 61 61 61 60 59 60 61 62
Wind_Direction
261 260 259 258 258 258 257 257 258 259 260 260 261 262 262 261 261 262 262 261 260 259 259 259 259 259 259 258 258 258 259 259 259 259 260 260 260 261 260 260 259 258 259
262 261 261 259 258 258 258 258 258 259 260 260 261 262 262 261 262 262 262 261 261 260 259 259 259 260 259 259 258 258 259 258 258 258 258 258 259 260 260 260 260 259 258
262 261 261 261 260 259 259 259 259 259 260 260 261 262 262 262 262 263 262 261 262 261 260 260 260 260 260 260 259 258 257 257 256 256 257 257 258 259 259 260 260 259 259
262 262 262 261 260 259 259 259 260 260 260 260 261 261 262 262 262 263 262 261 261 261 261 260 261 261 261 260 259 258 256 256 255 254 255 255 256 257 258 259 258 257 258
263 263 263 262 261 260 260 260 260 260 261 261 260 261 261 262 262 262 261 261 261 261 261 261 261 261 260 260 259 257 256 255 255 254 255 255 255 256 257 257 258 257 257
263 263 263 262 262 261 261 260 260 260 261 261 261 261 261 262 262 262 261 261 261 261 261 261 261 261 260 259 258 257 256 255 255 256 255 256 255 256 256 256 257 257 256
264 264 263 263 262 261 261 260 260 261 261 262 262 261 261 261 261 261 261 261 261 261 261 261 261 260 259 259 257 256 255 255 255 255 255 255 256 256 257 257 256 256 255
265 264 263 263 263 262 262 261 261 261 261 262 262 262 261 261 261 261 261 261 261 261 261 260 260 260 259 258 257 256 254 254 254 255 255 255 256 256 257 257 257 257 256
265 264 264 264 263 263 263 262 262 262 262 262 261 262 262 261 261 261 261 261 261 261 260 259 259 259 258 258 256 256 254 253 254 254 254 254 255 256 256 256 257 257 257
266 265 265 265 264 264 263 263 263 262 262 262 261 261 262 261 261 260 260 260 261 261 260 259 259 258 258 257 256 255 254 253 254 254 253 253 254 255 255 256 256 256 257
266 266 266 266 265 265 264 264 263 263 262 262 261 261 261 261 261 260 260 260 260 260 260 259 259 259 258 257 255 254 254 254 254 253 253 253 254 255 256 256 256 256 256
267 267 267 266 266 265 265 264 264 263 262 262 261 261 261 261 260 260 259 259 259 259 260 259 259 259 258 257 256 256 255 255 255 254 253 253 253 254 255 255 255 255 256
268 267 267 267 266 266 265 264 263 263 262 262 261 261 261 261 260 260 259 259 259 259 259 260 259 258 258 257 256 256 256 256 255 255 254 253 253 253 254 254 254 255 256
269 269 268 267 266 265 264 264 263 262 262 261 261 261 261 261 260 260 260 259 259 258 258 258 259 258 257 257 257 257 256 256 256 255 255 254 254 254 254 254 254 254 255
269 269 269 267 266 265 264 263 262 262 262 262 261 261 261 261 260 260 260 259 259 258 257 257 257 257 257 258 257 257 257 256 256 256 256 255 254 254 254 254 254 254 254
270 269 268 267 265 264 263 263 262 261 261 262 262 261 261 262 261 261 260 260 259 259 258 257 256 256 257 257 258 257 257 257 256 256 256 256 254 254 254 254 254 254 254
269 268 267 266 266 264 263 262 262 262 262 262 262 262 262 262 262 261 260 260 260 259 258 257 257 256 257 257 257 257 257 257 256 256 255 256 255 254 254 254 253 253 253
268 267 266 266 266 265 263 263 262 262 262 262 262 262 262 262 262 261 260 259 259 259 258 257 257 257 257 257 257 257 256 256 256 256 256 256 255 254 254 254 253 252 253
267 267 266 266 265 264 264 263 263 262 262 263 263 262 262 262 262 262 261 260 260 259 258 258 257 257 257 257 257 256 256 256 256 256 255 255 254 254 254 254 254 253 253
267 267 266 265 265 264 264 263 263 263 263 263 262 262 262 262 262 262 262 262 261 260 260 259 258 258 258 257 257 257 256 256 256 255 255 254 254 253 253 254 253 253 253
266 266 265 265 264 264 263 263 263 263 263 263 262 262 262 263 263 263 263 263 263 262 261 260 259 259 259 258 258 258 257 256 256 256 254 253 253 253 253 253 253 253 252
267 266 266 265 265 264 264 264 263 264 263 263 263 263 263 263 263 264 264 264 264 263 262 261 260 259 260 259 258 258 257 256 256 256 255 254 254 253 253 252 252 252 252
268 268 267 267 267 266 265 265 265 265 265 265 264 264 263 264 264 264 264 264 264 264 263 261 260 260 260 259 259 258 257 256 256 255 255 255 255 254 253 253 252 252 252
270 269 268 268 268 267 266 266 266 266 266 265 265 264 265 265 264 264 264 264 264 264 263 262 261 261 260 259 258 257 257 256 256 256 255 255 255 255 254 253 253 253 253
272 270 269 268 267 267 267 266 266 266 266 266 266 266 266 266 266 265 265 265 265 264 263 263 262 260 260 259 258 257 257 256 256 255 255 256 255 254 254 253 253 253 252
274 272 270 268 268 268 267 267 267 266 266 266 266 267 267 267 267 267 266 265 265 264 264 263 262 260 259 259 258 257 257 256 256 255 255 255 255 254 254 253 254 253 253
Height
5778 5779 5780 5781 5783 5784 5786 5787 5789 5790 5792 5793 5794 5795 5796 5797 5798 5799 5801 5802 5803 5804 5805 5806 5807 5808 5809 5810 5810 5811 5812 5813 5814 5815 5816 5818 5819 5819 5820 5821 5821 5822 5823
5769 5771 5772 5773 5775 5776 5778 5779 5781 5782 5784 5785 5786 5787 5788 5790 5791 5792 5793 5794 5796 5797 5798 5799 5800 5801 5802 5803 5804 5804 5805 5807 5808 5809 5810 5811 5813 5814 5815 5816 5816 5817 5818
5760 5762 5763 5764 5766 5767 5769 5770 5772 5774 5775 5776 5778 5779 5780 5781 5783 5784 5785 5787 5788 5789 5790 5791 5792 5793 5794 5795 5796 5797 5798 5799 5801 5803 5804 5805 5807 5808 5809 5810 5811 5812 5813
5751 5752 5753 5755 5756 5757 5759 5761 5762 5764 5766 5767 5769 5770 5772 5773 5774 5775 5777 5778 5779 5780 5782 5783 5784 5785 5785 5786 5787 5789 5790 5792 5794 5796 5798 5799 5800 5802 5803 5804 5805 5806 5807
5741 5742 5743 5744 5746 5747 5749 5751 5752 5754 5756 5757 5759 5760 5762 5763 5765 5766 5767 5769 5770 5771 5773 5774 5775 5776 5777 5778 5779 5781 5782 5784 5786 5788 5790 5792 5793 5795 5796 5797 5798 5799 5801
5730 5731 5733 5734 5735 5737 5738 5740 5742 5743 5745 5746 5748 5749 5751 5752 5754 5756 5757 5759 5760 5761 5763 5765 5766 5767 5768 5769 5770 5772 5774 5776 5778 5780 5782 5784 5786 5787 5789 5790 5791 5793 5794
5719 5720 5721 5722 5724 5725 5727 5728 5730 5732 5733 5735 5737 5738 5740 5741 5743 5745 5746 5748 5749 5751 5752 5754 5756 5757 5758 5759 5761 5763 5765 5767 5769 5771 5774 5776 5778 5779 5781 5782 5784 5785 5787
5707 5708 5709 5710 5711 5713 5714 5716 5718 5719 5721 5723 5724 5726 5728 5730 5731 5733 5735 5736 5738 5739 5741 5743 5745 5746 5748 5749 5751 5753 5755 5757 5760 5762 5764 5766 5769 5770 5772 5774 5775 5777 5779
5694 5695 5696 5697 5698 5700 5701 5702 5704 5706 5708 5709 5711 5713 5715 5717 5719 5721 5722 5724 5725 5727 5729 5731 5733 5735 5737 5738 5740 5742 5744 5747 5749 5751 5754 5756 5759 5761 5763 5765 5766 5768 5770
5681 5682 5682 5683 5684 5686 5687 5688 5690 5691 5693 5695 5696 5698 5700 5702 5704 5707 5709 5711 5713 5714 5716 5718 5721 5723 5725 5727 5729 5731 5733 5736 5738 5741 5743 5746 5748 5750 5753 5755 5757 5759 5761
5666 5667 5668 5668 5670 5671 5672 5673 5674 5675 5677 5679 5681 5682 5684 5686 5688 5691 5695 5697 5699 5701 5703 5705 5707 5710 5712 5714 5716 5719 5721 5724 5726 5729 5731 5734 5737 5739 5741 5744 5746 5748 5751
5651 5652 5652 5653 5653 5654 5655 5656 5657 5658 5660 5662 5664 5665 5668 5670 5673 5675 5678 5681 5684 5686 5688 5691 5693 5696 5698 5700 5703 5705 5708 5711 5713 5716 5718 5721 5724 5727 5730 5732 5735 5737 5740
5636 5636 5636 5636 5636 5637 5637 5638 5640 5641 5643 5645 5646 5648 5651 5653 5656 5658 5661 5665 5668 5671 5673 5676 5678 5680 5683 5686 5688 5691 5694 5696 5699 5702 5705 5708 5711 5714 5717 5720 5722 5725 5727
5619 5619 5619 5619 5619 5619 5620 5621 5622 5624 5625 5627 5629 5631 5633 5636 5638 5641 5644 5647 5651 5654 5657 5660 5662 5664 5667 5670 5673 5676 5679 5682 5684 5687 5690 5693 5697 5700 5703 5706 5709 5711 5714
5602 5601 5601 5601 5601 5602 5602 5603 5605 5606 5608 5610 5612 5614 5616 5618 5621 5623 5626 5629 5633 5636 5641 5644 5646 5648 5650 5653 5657 5660 5663 5666 5669 5672 5675 5678 5681 5684 5688 5691 5694 5697 5700
5584 5584 5583 5584 5584 5584 5585 5586 5588 5589 5591 5593 5594 5596 5599 5601 5603 5605 5608 5611 5614 5618 5622 5626 5628 5631 5633 5636 5639 5643 5646 5649 5652 5656 5659 5662 5665 5668 5672 5675 5679 5682 5685
5566 5566 5566 5566 5567 5567 5568 5570 5571 5572 5574 5576 5578 5580 5582 5584 5586 5588 5590 5593 5596 5599 5603 5608 5610 5613 5616 5619 5622 5625 5628 5632 5635 5639 5642 5645 5648 5652 5655 5658 5662 5666 5669
5549 5549 5549 5550 5550 5551 5552 5553 5555 5556 5558 5559 5561 5563 5565 5566 5569 5570 5573 5575 5578 5581 5585 5589 5593 5595 5598 5601 5604 5607 5610 5614 5617 5621 5624 5627 5631 5634 5638 5641 5645 5648 5652
5532 5532 5532 5533 5534 5534 5536 5537 5538 5540 5541 5543 5544 5546 5548 5550 5552 5553 5555 5558 5560 5563 5567 5571 5575 5577 5580 5582 5585 5589 5592 5596 5599 5603 5606 5609 5613 5616 5620 5623 5627 5630 5635
5515 5516 5516 5517 5518 5519 5520 5521 5522 5524 5525 5527 5528 5530 5531 5533 5535 5536 5538 5541 5543 5545 5548 5551 5555 5559 5562 5564 5566 5570 5574 5577 5581 5584 5587 5590 5594 5597 5601 5605 5609 5612 5616
5499 5500 5500 5501 5502 5503 5504 5505 5507 5508 5510 5511 5512 5514 5515 5517 5518 5520 5522 5523 5525 5527 5529 5532 5536 5539 5543 5545 5548 5551 5554 5558 5561 5564 5568 5572 5576 5580 5582 5586 5589 5593 5597
5483 5484 5485 5486 5487 5488 5489 5490 5491 5493 5494 5495 5496 5498 5499 5501 5502 5503 5504 5506 5507 5509 5511 5514 5517 5520 5523 5525 5528 5531 5534 5539 5544 5548 5549 5553 5556 5560 5563 5567 5571 5574 5578
5469 5469 5470 5471 5472 5473 5473 5474 5475 5477 5478 5479 5480 5481 5483 5484 5485 5486 5487 5488 5489 5490 5492 5495 5498 5501 5503 5507 5510 5513 5515 5518 5523 5527 5529 5534 5537 5540 5544 5548 5551 5555 5559
5455 5455 5456 5456 5457 5458 5458 5459 5460 5461 5462 5463 5464 5465 5467 5468 5468 5469 5470 5471 5472 5473 5475 5477 5480 5482 5484 5485 5488 5492 5495 5499 5504 5507 5510 5515 5518 5521 5525 5529 5532 5536 5540
5441 5441 5442 5442 5443 5443 5443 5444 5444 5446 5447 5448 5448 5449 5450 5451 5452 5452 5453 5455 5456 5456 5456 5458 5460 5462 5464 5467 5469 5472 5476 5480 5485 5489 5491 5495 5499 5502 5507 5511 5513 5516 5520
5429 5428 5429 5429 5429 5430 5429 5429 5429 5431 5432 5433 5433 5434 5434 5434 5434 5434 5435 5436 5438 5439 5439 5440 5441 5443 5446 5448 5450 5453 5456 5460 5464 5470 5473 5476 5480 5483 5488 5493 5495 5498 5501